Time,TemperatureF,DewpointF,PressureIn,WindDirection,WindDirectionDegrees,WindSpeedMPH,WindSpeedGustMPH,Humidity,HourlyPrecipIn,Conditions,Clouds,dailyrainin,SoftwareType,DateUTC
2013-06-01 00:01:00,64.0,61.0,29.93,North,-999,-999.0,-999.0,89,0.00,,,0.00,tws,2013-06-01 04:01:00,
2013-06-01 00:06:00,63.9,60.8,29.93,North,-999,-999.0,-999.0,89,0.00,,,0.00,tws,2013-06-01 04:06:00,
2013-06-01 00:11:00,63.8,60.9,29.93,North,-999,-999.0,-999.0,90,0.00,,,0.00,tws,2013-06-01 04:11:00,
2013-06-01 00:16:00,63.7,61.0,29.93,North,-999,-999.0,-999.0,90,0.00,,,0.00,tws,2013-06-01 04:16:00,
2013-06-01 00:21:00,63.6,60.8,29.92,North,-999,-999.0,-999.0,90,0.00,,,0.00,tws,2013-06-01 04:21:00,
2013-06-01 00:26:00,63.5,60.9,29.92,North,-999,-999.0,-999.0,91,0.00,,,0.00,tws,2013-06-01 04:26:00,
2013-06-01 00:31:00,63.4,60.9,29.92,North,-999,-999.0,-999.0,91,0.00,,,0.00,tws,2013-06-01 04:31:00,
2013-06-01 00:36:00,63.4,61.0,29.92,North,-999,-999.0,-999.0,91,0.00,,,0.00,tws,2013-06-01 04:36:00,
2013-06-01 00:41:00,63.4,61.0,29.92,North,-999,-999.0,-999.0,91,0.00,,,0.00,tws,2013-06-01 04:41:00,
2013-06-01 00:46:00,63.4,61.1,29.92,North,-999,-999.0,-999.0,91,0.00,,,0.00,tws,2013-06-01 04:46:00,
2013-06-01 00:51:00,63.5,61.1,29.92,North,-999,-999.0,-999.0,91,0.00,,,0.00,tws,2013-06-01 04:51:00,
2013-06-01 00:56:00,63.4,61.0,29.92,North,-999,-999.0,-999.0,91,0.00,,,0.00,tws,2013-06-01 04:56:00,
2013-06-01 01:01:00,63.4,61.1,29.92,North,-999,-999.0,-999.0,92,0.00,,,0.00,tws,2013-06-01 05:01:00,
2013-06-01 01:06:00,63.3,61.1,29.92,North,-999,-999.0,-999.0,92,0.00,,,0.00,tws,2013-06-01 05:06:00,
2013-06-01 01:11:00,63.2,61.0,29.91,North,-999,-999.0,-999.0,92,0.00,,,0.00,tws,2013-06-01 05:11:00,
2013-06-01 01:16:00,63.0,61.0,29.92,North,-999,-999.0,-999.0,92,0.00,,,0.00,tws,2013-06-01 05:16:00,
2013-06-01 01:21:00,63.0,61.0,29.91,North,-999,-999.0,-999.0,93,0.00,,,0.00,tws,2013-06-01 05:21:00,
2013-06-01 01:26:00,62.9,61.0,29.91,North,-999,-999.0,-999.0,93,0.00,,,0.00,tws,2013-06-01 05:26:00,
2013-06-01 01:31:00,62.9,61.0,29.91,North,-999,-999.0,-999.0,93,0.00,,,0.00,tws,2013-06-01 05:31:00,
2013-06-01 01:36:00,62.9,61.2,29.91,North,-999,-999.0,-999.0,93,0.00,,,0.00,tws,2013-06-01 05:36:00,
2013-06-01 01:41:00,62.9,61.3,29.91,North,-999,-999.0,-999.0,94,0.00,,,0.00,tws,2013-06-01 05:41:00,
2013-06-01 01:46:00,62.9,61.3,29.92,North,-999,-999.0,-999.0,94,0.00,,,0.00,tws,2013-06-01 05:46:00,
2013-06-01 01:51:00,63.0,61.4,29.91,North,-999,-999.0,-999.0,94,0.00,,,0.00,tws,2013-06-01 05:51:00,
2013-06-01 01:56:00,63.1,61.4,29.91,North,-999,-999.0,-999.0,94,0.00,,,0.00,tws,2013-06-01 05:56:00,
2013-06-01 02:01:00,63.2,61.5,29.92,North,-999,-999.0,-999.0,94,0.00,,,0.00,tws,2013-06-01 06:01:00,
2013-06-01 02:06:00,63.3,61.6,29.92,North,-999,-999.0,-999.0,94,0.00,,,0.00,tws,2013-06-01 06:06:00,
2013-06-01 02:11:00,63.3,61.5,29.92,North,-999,-999.0,-999.0,93,0.00,,,0.00,tws,2013-06-01 06:11:00,
2013-06-01 02:16:00,63.3,61.6,29.92,North,-999,-999.0,-999.0,94,0.00,,,0.00,tws,2013-06-01 06:16:00,
2013-06-01 02:21:00,63.4,61.5,29.92,North,-999,-999.0,-999.0,93,0.00,,,0.00,tws,2013-06-01 06:21:00,
2013-06-01 02:26:00,63.4,61.6,29.92,North,-999,-999.0,-999.0,93,0.00,,,0.00,tws,2013-06-01 06:26:00,
2013-06-01 02:31:00,63.4,61.6,29.92,North,-999,-999.0,-999.0,93,0.00,,,0.00,tws,2013-06-01 06:31:00,
2013-06-01 02:36:00,63.4,61.6,29.92,North,-999,-999.0,-999.0,93,0.00,,,0.00,tws,2013-06-01 06:36:00,
2013-06-01 02:41:00,63.4,61.7,29.92,North,-999,-999.0,-999.0,94,0.00,,,0.00,tws,2013-06-01 06:41:00,
2013-06-01 02:46:00,63.5,61.7,29.92,North,-999,-999.0,-999.0,93,0.00,,,0.00,tws,2013-06-01 06:46:00,
2013-06-01 02:51:00,63.5,61.8,29.92,North,-999,-999.0,-999.0,94,0.00,,,0.00,tws,2013-06-01 06:51:00,
2013-06-01 02:56:00,63.6,62.0,29.92,North,-999,-999.0,-999.0,94,0.00,,,0.00,tws,2013-06-01 06:56:00,
2013-06-01 03:01:00,63.7,62.0,29.92,North,-999,-999.0,-999.0,94,0.00,,,0.00,tws,2013-06-01 07:01:00,
2013-06-01 03:06:00,63.8,62.1,29.92,North,-999,-999.0,-999.0,93,0.00,,,0.00,tws,2013-06-01 07:06:00,
2013-06-01 03:11:00,63.9,62.1,29.92,North,-999,-999.0,-999.0,93,0.00,,,0.00,tws,2013-06-01 07:11:00,
2013-06-01 03:16:00,64.0,62.2,29.92,North,-999,-999.0,-999.0,93,0.00,,,0.00,tws,2013-06-01 07:16:00,
2013-06-01 03:21:00,64.2,62.3,29.92,North,-999,-999.0,-999.0,93,0.00,,,0.00,tws,2013-06-01 07:21:00,
2013-06-01 03:26:00,64.3,62.4,29.92,North,-999,-999.0,-999.0,93,0.00,,,0.00,tws,2013-06-01 07:26:00,
2013-06-01 03:31:00,64.4,62.5,29.92,North,-999,-999.0,-999.0,93,0.00,,,0.00,tws,2013-06-01 07:31:00,
2013-06-01 03:36:00,64.5,62.7,29.92,North,-999,-999.0,-999.0,93,0.00,,,0.00,tws,2013-06-01 07:36:00,
2013-06-01 03:41:00,64.6,62.7,29.92,North,-999,-999.0,-999.0,93,0.00,,,0.00,tws,2013-06-01 07:41:00,
2013-06-01 03:46:00,64.7,62.9,29.92,North,-999,-999.0,-999.0,93,0.00,,,0.00,tws,2013-06-01 07:46:00,
2013-06-01 03:51:00,64.7,62.9,29.92,North,-999,-999.0,-999.0,93,0.00,,,0.00,tws,2013-06-01 07:51:00,
2013-06-01 03:56:00,64.9,63.0,29.92,North,-999,-999.0,-999.0,93,0.00,,,0.00,tws,2013-06-01 07:56:00,
2013-06-01 04:01:00,64.9,62.9,29.92,North,-999,-999.0,-999.0,93,0.00,,,0.00,tws,2013-06-01 08:01:00,
2013-06-01 04:06:00,65.0,63.0,29.91,North,-999,-999.0,-999.0,93,0.00,,,0.00,tws,2013-06-01 08:06:00,
2013-06-01 04:11:00,65.1,63.2,29.91,North,-999,-999.0,-999.0,93,0.00,,,0.00,tws,2013-06-01 08:11:00,
2013-06-01 04:16:00,65.3,63.4,29.91,North,-999,-999.0,-999.0,93,0.00,,,0.00,tws,2013-06-01 08:16:00,
2013-06-01 04:21:00,65.5,63.7,29.91,North,-999,-999.0,-999.0,93,0.00,,,0.00,tws,2013-06-01 08:21:00,
2013-06-01 04:26:00,65.8,63.8,29.91,North,-999,-999.0,-999.0,92,0.00,,,0.00,tws,2013-06-01 08:26:00,
2013-06-01 04:31:00,66.2,63.9,29.91,North,-999,-999.0,-999.0,92,0.00,,,0.00,tws,2013-06-01 08:31:00,
2013-06-01 04:36:00,66.4,64.1,29.92,North,-999,-999.0,-999.0,92,0.00,,,0.00,tws,2013-06-01 08:36:00,
2013-06-01 04:41:00,66.7,64.1,29.91,North,-999,-999.0,-999.0,91,0.00,,,0.00,tws,2013-06-01 08:41:00,
2013-06-01 04:46:00,66.8,64.0,29.92,North,-999,-999.0,-999.0,90,0.00,,,0.00,tws,2013-06-01 08:46:00,
2013-06-01 04:51:00,66.9,64.0,29.91,North,-999,-999.0,-999.0,90,0.00,,,0.00,tws,2013-06-01 08:51:00,
2013-06-01 04:56:00,67.1,63.9,29.91,North,-999,-999.0,-999.0,89,0.00,,,0.00,tws,2013-06-01 08:56:00,
2013-06-01 05:01:00,67.3,63.8,29.91,North,-999,-999.0,-999.0,88,0.00,,,0.00,tws,2013-06-01 09:01:00,
2013-06-01 05:06:00,67.4,63.9,29.91,North,-999,-999.0,-999.0,88,0.00,,,0.00,tws,2013-06-01 09:06:00,
2013-06-01 05:11:00,67.6,63.8,29.91,North,-999,-999.0,-999.0,87,0.00,,,0.00,tws,2013-06-01 09:11:00,
2013-06-01 05:16:00,67.7,63.7,29.91,North,-999,-999.0,-999.0,86,0.00,,,0.00,tws,2013-06-01 09:16:00,
2013-06-01 05:21:00,67.7,63.6,29.91,North,-999,-999.0,-999.0,86,0.00,,,0.00,tws,2013-06-01 09:21:00,
2013-06-01 05:26:00,67.7,63.5,29.90,North,-999,-999.0,-999.0,86,0.00,,,0.00,tws,2013-06-01 09:26:00,
2013-06-01 05:31:00,67.7,63.4,29.90,North,-999,-999.0,-999.0,85,0.00,,,0.00,tws,2013-06-01 09:31:00,
2013-06-01 05:36:00,67.7,63.4,29.90,North,-999,-999.0,-999.0,85,0.00,,,0.00,tws,2013-06-01 09:36:00,
2013-06-01 05:41:00,67.6,63.3,29.90,North,-999,-999.0,-999.0,85,0.00,,,0.00,tws,2013-06-01 09:41:00,
2013-06-01 05:46:00,67.5,63.3,29.90,North,-999,-999.0,-999.0,86,0.00,,,0.00,tws,2013-06-01 09:46:00,
2013-06-01 05:56:00,67.4,63.1,29.91,North,-999,-999.0,-999.0,85,0.00,,,0.00,tws,2013-06-01 09:56:00,
2013-06-01 06:01:00,67.3,63.1,29.91,North,-999,-999.0,-999.0,86,0.00,,,0.00,tws,2013-06-01 10:01:00,
2013-06-01 06:06:00,67.3,63.1,29.90,North,-999,-999.0,-999.0,86,0.00,,,0.00,tws,2013-06-01 10:06:00,
2013-06-01 06:11:00,67.2,63.0,29.90,North,-999,-999.0,-999.0,86,0.00,,,0.00,tws,2013-06-01 10:11:00,
2013-06-01 06:16:00,67.1,63.0,29.90,North,-999,-999.0,-999.0,86,0.00,,,0.00,tws,2013-06-01 10:16:00,
2013-06-01 06:21:00,67.1,62.9,29.90,North,-999,-999.0,-999.0,86,0.00,,,0.00,tws,2013-06-01 10:21:00,
2013-06-01 06:26:00,67.1,62.9,29.90,North,-999,-999.0,-999.0,86,0.00,,,0.00,tws,2013-06-01 10:26:00,
2013-06-01 06:31:00,67.0,62.7,29.90,North,-999,-999.0,-999.0,85,0.00,,,0.00,tws,2013-06-01 10:31:00,
2013-06-01 06:36:00,67.0,62.5,29.91,North,-999,-999.0,-999.0,85,0.00,,,0.00,tws,2013-06-01 10:36:00,
2013-06-01 06:41:00,67.0,62.5,29.90,North,-999,-999.0,-999.0,85,0.00,,,0.00,tws,2013-06-01 10:41:00,
2013-06-01 06:46:00,67.1,62.5,29.91,North,-999,-999.0,-999.0,84,0.00,,,0.00,tws,2013-06-01 10:46:00,
2013-06-01 06:51:00,67.1,62.6,29.90,North,-999,-999.0,-999.0,85,0.00,,,0.00,tws,2013-06-01 10:51:00,
2013-06-01 06:56:00,67.0,62.7,29.90,North,-999,-999.0,-999.0,85,0.00,,,0.00,tws,2013-06-01 10:56:00,
2013-06-01 07:01:00,67.0,62.7,29.90,North,-999,-999.0,-999.0,85,0.00,,,0.00,tws,2013-06-01 11:01:00,
2013-06-01 07:06:00,67.0,62.5,29.90,North,-999,-999.0,-999.0,85,0.00,,,0.00,tws,2013-06-01 11:06:00,
2013-06-01 07:11:00,67.0,62.3,29.90,North,-999,-999.0,-999.0,84,0.00,,,0.00,tws,2013-06-01 11:11:00,
2013-06-01 07:16:00,67.1,62.2,29.90,North,-999,-999.0,-999.0,84,0.00,,,0.00,tws,2013-06-01 11:16:00,
2013-06-01 07:21:00,67.2,62.2,29.90,North,-999,-999.0,-999.0,83,0.00,,,0.00,tws,2013-06-01 11:21:00,
2013-06-01 07:26:00,67.3,62.4,29.90,North,-999,-999.0,-999.0,84,0.00,,,0.00,tws,2013-06-01 11:26:00,
2013-06-01 07:31:00,67.4,62.6,29.90,North,-999,-999.0,-999.0,84,0.00,,,0.00,tws,2013-06-01 11:31:00,
2013-06-01 07:36:00,67.5,62.9,29.90,North,-999,-999.0,-999.0,85,0.00,,,0.00,tws,2013-06-01 11:36:00,
2013-06-01 07:41:00,67.7,63.1,29.91,North,-999,-999.0,-999.0,85,0.00,,,0.00,tws,2013-06-01 11:41:00,
2013-06-01 07:46:00,67.8,63.1,29.90,North,-999,-999.0,-999.0,84,0.00,,,0.00,tws,2013-06-01 11:46:00,
2013-06-01 07:51:00,68.0,62.9,29.90,North,-999,-999.0,-999.0,83,0.00,,,0.00,tws,2013-06-01 11:51:00,
2013-06-01 07:56:00,68.2,62.8,29.91,North,-999,-999.0,-999.0,82,0.00,,,0.00,tws,2013-06-01 11:56:00,
2013-06-01 08:01:00,68.3,62.8,29.91,North,-999,-999.0,-999.0,82,0.00,,,0.00,tws,2013-06-01 12:01:00,
2013-06-01 08:06:00,68.4,62.6,29.91,North,-999,-999.0,-999.0,81,0.00,,,0.00,tws,2013-06-01 12:06:00,
2013-06-01 08:11:00,68.5,62.4,29.91,North,-999,-999.0,-999.0,80,0.00,,,0.00,tws,2013-06-01 12:11:00,
2013-06-01 08:16:00,68.5,62.7,29.90,North,-999,-999.0,-999.0,81,0.00,,,0.00,tws,2013-06-01 12:16:00,
2013-06-01 08:21:00,68.6,62.9,29.90,North,-999,-999.0,-999.0,81,0.00,,,0.00,tws,2013-06-01 12:21:00,
2013-06-01 08:26:00,68.8,63.1,29.90,North,-999,-999.0,-999.0,81,0.00,,,0.00,tws,2013-06-01 12:26:00,
2013-06-01 08:31:00,69.2,62.9,29.90,North,-999,-999.0,-999.0,80,0.00,,,0.00,tws,2013-06-01 12:31:00,
2013-06-01 08:36:00,69.6,63.3,29.90,North,-999,-999.0,-999.0,80,0.00,,,0.00,tws,2013-06-01 12:36:00,
2013-06-01 08:41:00,69.7,62.4,29.90,North,-999,-999.0,-999.0,77,0.00,,,0.00,tws,2013-06-01 12:41:00,
2013-06-01 08:46:00,70.0,62.1,29.90,North,-999,-999.0,-999.0,75,0.00,,,0.00,tws,2013-06-01 12:46:00,
2013-06-01 08:51:00,70.5,62.9,29.90,North,-999,-999.0,-999.0,76,0.00,,,0.00,tws,2013-06-01 12:51:00,
2013-06-01 08:56:00,70.9,63.0,29.90,North,-999,-999.0,-999.0,75,0.00,,,0.00,tws,2013-06-01 12:56:00,
2013-06-01 09:01:00,71.3,63.4,29.90,North,-999,-999.0,-999.0,75,0.00,,,0.00,tws,2013-06-01 13:01:00,
2013-06-01 09:06:00,71.7,63.5,29.90,North,-999,-999.0,-999.0,75,0.00,,,0.00,tws,2013-06-01 13:06:00,
2013-06-01 09:11:00,72.1,63.5,29.90,North,-999,-999.0,-999.0,74,0.00,,,0.00,tws,2013-06-01 13:11:00,
2013-06-01 09:16:00,72.2,63.0,29.90,North,-999,-999.0,-999.0,72,0.00,,,0.00,tws,2013-06-01 13:16:00,
2013-06-01 09:21:00,72.1,62.9,29.90,North,-999,-999.0,-999.0,72,0.00,,,0.00,tws,2013-06-01 13:21:00,
2013-06-01 09:26:00,72.1,63.1,29.90,North,-999,-999.0,-999.0,73,0.00,,,0.00,tws,2013-06-01 13:26:00,
2013-06-01 09:31:00,72.2,63.1,29.90,North,-999,-999.0,-999.0,72,0.00,,,0.00,tws,2013-06-01 13:31:00,
2013-06-01 09:36:00,72.2,62.6,29.90,North,-999,-999.0,-999.0,71,0.00,,,0.00,tws,2013-06-01 13:36:00,
2013-06-01 09:41:00,72.3,62.4,29.90,North,-999,-999.0,-999.0,70,0.00,,,0.00,tws,2013-06-01 13:41:00,
2013-06-01 09:46:00,72.3,62.1,29.90,North,-999,-999.0,-999.0,70,0.00,,,0.00,tws,2013-06-01 13:46:00,
2013-06-01 09:51:00,72.4,62.2,29.90,North,-999,-999.0,-999.0,70,0.00,,,0.00,tws,2013-06-01 13:51:00,
2013-06-01 09:56:00,72.4,62.5,29.90,North,-999,-999.0,-999.0,70,0.00,,,0.00,tws,2013-06-01 13:56:00,
2013-06-01 10:01:00,72.4,62.3,29.91,North,-999,-999.0,-999.0,70,0.00,,,0.00,tws,2013-06-01 14:01:00,
2013-06-01 10:06:00,72.5,62.3,29.90,North,-999,-999.0,-999.0,69,0.00,,,0.00,tws,2013-06-01 14:06:00,
2013-06-01 10:11:00,72.7,62.5,29.90,North,-999,-999.0,-999.0,70,0.00,,,0.00,tws,2013-06-01 14:11:00,
2013-06-01 10:16:00,72.8,62.3,29.90,North,-999,-999.0,-999.0,69,0.00,,,0.00,tws,2013-06-01 14:16:00,
2013-06-01 10:21:00,73.1,62.3,29.90,North,-999,-999.0,-999.0,68,0.00,,,0.00,tws,2013-06-01 14:21:00,
2013-06-01 10:26:00,73.2,61.9,29.90,North,-999,-999.0,-999.0,67,0.00,,,0.00,tws,2013-06-01 14:26:00,
2013-06-01 10:31:00,73.2,62.0,29.89,North,-999,-999.0,-999.0,67,0.00,,,0.00,tws,2013-06-01 14:31:00,
2013-06-01 10:36:00,73.3,62.2,29.89,North,-999,-999.0,-999.0,67,0.00,,,0.00,tws,2013-06-01 14:36:00,
2013-06-01 10:41:00,73.4,61.9,29.90,North,-999,-999.0,-999.0,66,0.00,,,0.00,tws,2013-06-01 14:41:00,
2013-06-01 10:46:00,73.8,62.6,29.89,North,-999,-999.0,-999.0,67,0.00,,,0.00,tws,2013-06-01 14:46:00,
2013-06-01 10:51:00,74.1,61.8,29.90,North,-999,-999.0,-999.0,65,0.00,,,0.00,tws,2013-06-01 14:51:00,
2013-06-01 10:56:00,74.4,62.4,29.90,North,-999,-999.0,-999.0,65,0.00,,,0.00,tws,2013-06-01 14:56:00,
2013-06-01 11:01:00,75.0,62.4,29.90,North,-999,-999.0,-999.0,64,0.00,,,0.00,tws,2013-06-01 15:01:00,
2013-06-01 11:06:00,75.5,62.8,29.90,North,-999,-999.0,-999.0,64,0.00,,,0.00,tws,2013-06-01 15:06:00,
2013-06-01 11:11:00,75.7,63.1,29.90,North,-999,-999.0,-999.0,64,0.00,,,0.00,tws,2013-06-01 15:11:00,
2013-06-01 11:16:00,75.8,62.5,29.90,North,-999,-999.0,-999.0,62,0.00,,,0.00,tws,2013-06-01 15:16:00,
2013-06-01 11:21:00,75.8,63.0,29.90,North,-999,-999.0,-999.0,63,0.00,,,0.00,tws,2013-06-01 15:21:00,
2013-06-01 11:26:00,75.8,62.6,29.90,North,-999,-999.0,-999.0,63,0.00,,,0.00,tws,2013-06-01 15:26:00,
2013-06-01 11:31:00,75.7,62.0,29.89,North,-999,-999.0,-999.0,62,0.00,,,0.00,tws,2013-06-01 15:31:00,
2013-06-01 11:36:00,75.7,62.2,29.89,North,-999,-999.0,-999.0,62,0.00,,,0.00,tws,2013-06-01 15:36:00,
2013-06-01 11:41:00,75.8,61.9,29.89,North,-999,-999.0,-999.0,61,0.00,,,0.00,tws,2013-06-01 15:41:00,
2013-06-01 11:46:00,75.8,61.9,29.89,North,-999,-999.0,-999.0,61,0.00,,,0.00,tws,2013-06-01 15:46:00,
2013-06-01 11:51:00,76.1,61.8,29.89,North,-999,-999.0,-999.0,60,0.00,,,0.00,tws,2013-06-01 15:51:00,
2013-06-01 11:56:00,76.1,62.1,29.89,North,-999,-999.0,-999.0,61,0.00,,,0.00,tws,2013-06-01 15:56:00,
2013-06-01 12:01:00,76.1,62.4,29.89,North,-999,-999.0,-999.0,62,0.00,,,0.00,tws,2013-06-01 16:01:00,
2013-06-01 12:06:00,76.2,62.7,29.89,North,-999,-999.0,-999.0,62,0.00,,,0.00,tws,2013-06-01 16:06:00,
2013-06-01 12:11:00,76.5,62.5,29.89,North,-999,-999.0,-999.0,61,0.00,,,0.00,tws,2013-06-01 16:11:00,
2013-06-01 12:16:00,76.8,62.8,29.89,North,-999,-999.0,-999.0,61,0.00,,,0.00,tws,2013-06-01 16:16:00,
2013-06-01 12:21:00,77.2,63.5,29.89,North,-999,-999.0,-999.0,62,0.00,,,0.00,tws,2013-06-01 16:21:00,
2013-06-01 12:26:00,77.5,63.8,29.89,North,-999,-999.0,-999.0,62,0.00,,,0.00,tws,2013-06-01 16:26:00,
2013-06-01 12:31:00,77.7,63.1,29.89,North,-999,-999.0,-999.0,60,0.00,,,0.00,tws,2013-06-01 16:31:00,
2013-06-01 12:36:00,77.8,63.3,29.88,North,-999,-999.0,-999.0,60,0.00,,,0.00,tws,2013-06-01 16:36:00,
2013-06-01 12:41:00,77.9,63.8,29.88,North,-999,-999.0,-999.0,61,0.00,,,0.00,tws,2013-06-01 16:41:00,
2013-06-01 12:46:00,78.2,64.4,29.88,North,-999,-999.0,-999.0,61,0.00,,,0.00,tws,2013-06-01 16:46:00,
2013-06-01 12:51:00,78.9,64.6,29.88,North,-999,-999.0,-999.0,61,0.00,,,0.00,tws,2013-06-01 16:51:00,
2013-06-01 12:56:00,79.4,64.7,29.88,North,-999,-999.0,-999.0,60,0.00,,,0.00,tws,2013-06-01 16:56:00,
2013-06-01 13:01:00,79.7,64.0,29.88,North,-999,-999.0,-999.0,58,0.00,,,0.00,tws,2013-06-01 17:01:00,
2013-06-01 13:06:00,79.7,63.3,29.88,North,-999,-999.0,-999.0,56,0.00,,,0.00,tws,2013-06-01 17:06:00,
2013-06-01 13:11:00,79.7,64.0,29.88,North,-999,-999.0,-999.0,58,0.00,,,0.00,tws,2013-06-01 17:11:00,
2013-06-01 13:16:00,79.8,64.0,29.88,North,-999,-999.0,-999.0,58,0.00,,,0.00,tws,2013-06-01 17:16:00,
2013-06-01 13:21:00,80.1,63.1,29.88,North,-999,-999.0,-999.0,55,0.00,,,0.00,tws,2013-06-01 17:21:00,
2013-06-01 13:26:00,80.2,61.3,29.88,North,-999,-999.0,-999.0,51,0.00,,,0.00,tws,2013-06-01 17:26:00,
2013-06-01 13:31:00,80.3,61.7,29.88,North,-999,-999.0,-999.0,52,0.00,,,0.00,tws,2013-06-01 17:31:00,
2013-06-01 13:36:00,80.6,61.7,29.88,North,-999,-999.0,-999.0,52,0.00,,,0.00,tws,2013-06-01 17:36:00,
2013-06-01 13:41:00,80.7,61.1,29.87,North,-999,-999.0,-999.0,50,0.00,,,0.00,tws,2013-06-01 17:41:00,
2013-06-01 13:46:00,80.5,60.2,29.87,North,-999,-999.0,-999.0,49,0.00,,,0.00,tws,2013-06-01 17:46:00,
2013-06-01 13:51:00,80.5,61.7,29.87,North,-999,-999.0,-999.0,52,0.00,,,0.00,tws,2013-06-01 17:51:00,
2013-06-01 13:56:00,80.4,61.8,29.87,North,-999,-999.0,-999.0,52,0.00,,,0.00,tws,2013-06-01 17:56:00,
2013-06-01 14:01:00,80.5,61.9,29.87,North,-999,-999.0,-999.0,52,0.00,,,0.00,tws,2013-06-01 18:01:00,
2013-06-01 14:06:00,80.4,61.5,29.87,North,-999,-999.0,-999.0,51,0.00,,,0.00,tws,2013-06-01 18:06:00,
2013-06-01 14:11:00,80.4,61.9,29.87,North,-999,-999.0,-999.0,52,0.00,,,0.00,tws,2013-06-01 18:11:00,
2013-06-01 14:16:00,80.4,62.2,29.87,North,-999,-999.0,-999.0,53,0.00,,,0.00,tws,2013-06-01 18:16:00,
2013-06-01 14:21:00,80.5,61.2,29.86,North,-999,-999.0,-999.0,51,0.00,,,0.00,tws,2013-06-01 18:21:00,
2013-06-01 14:26:00,80.4,60.8,29.86,North,-999,-999.0,-999.0,50,0.00,,,0.00,tws,2013-06-01 18:26:00,
2013-06-01 14:31:00,80.3,60.7,29.86,North,-999,-999.0,-999.0,50,0.00,,,0.00,tws,2013-06-01 18:31:00,
2013-06-01 14:36:00,80.3,60.7,29.86,North,-999,-999.0,-999.0,50,0.00,,,0.00,tws,2013-06-01 18:36:00,
2013-06-01 14:41:00,80.3,61.5,29.86,North,-999,-999.0,-999.0,52,0.00,,,0.00,tws,2013-06-01 18:41:00,
2013-06-01 14:46:00,80.4,63.1,29.86,North,-999,-999.0,-999.0,55,0.00,,,0.00,tws,2013-06-01 18:46:00,
2013-06-01 14:51:00,80.5,62.8,29.86,North,-999,-999.0,-999.0,54,0.00,,,0.00,tws,2013-06-01 18:51:00,
2013-06-01 14:56:00,80.7,63.3,29.86,North,-999,-999.0,-999.0,54,0.00,,,0.00,tws,2013-06-01 18:56:00,
2013-06-01 15:01:00,80.7,61.8,29.86,North,-999,-999.0,-999.0,52,0.00,,,0.00,tws,2013-06-01 19:01:00,
2013-06-01 15:06:00,80.6,61.4,29.86,North,-999,-999.0,-999.0,51,0.00,,,0.00,tws,2013-06-01 19:06:00,
2013-06-01 15:11:00,80.5,61.9,29.86,North,-999,-999.0,-999.0,52,0.00,,,0.00,tws,2013-06-01 19:11:00,
2013-06-01 15:16:00,80.6,61.4,29.86,North,-999,-999.0,-999.0,51,0.00,,,0.00,tws,2013-06-01 19:16:00,
2013-06-01 15:21:00,80.8,62.2,29.86,North,-999,-999.0,-999.0,52,0.00,,,0.00,tws,2013-06-01 19:21:00,
2013-06-01 15:26:00,80.6,62.2,29.86,North,-999,-999.0,-999.0,52,0.00,,,0.00,tws,2013-06-01 19:26:00,
2013-06-01 15:31:00,80.6,62.5,29.86,North,-999,-999.0,-999.0,53,0.00,,,0.00,tws,2013-06-01 19:31:00,
2013-06-01 15:41:00,79.7,62.2,29.86,North,-999,-999.0,-999.0,54,0.00,,,0.00,tws,2013-06-01 19:41:00,
2013-06-01 15:46:00,79.4,62.5,29.86,North,-999,-999.0,-999.0,55,0.00,,,0.00,tws,2013-06-01 19:46:00,
2013-06-01 15:51:00,79.1,62.2,29.86,North,-999,-999.0,-999.0,55,0.00,,,0.00,tws,2013-06-01 19:51:00,
2013-06-01 15:56:00,78.5,61.9,29.86,North,-999,-999.0,-999.0,56,0.00,,,0.00,tws,2013-06-01 19:56:00,
2013-06-01 16:01:00,78.2,61.9,29.86,North,-999,-999.0,-999.0,56,0.00,,,0.00,tws,2013-06-01 20:01:00,
2013-06-01 16:06:00,78.2,62.0,29.86,North,-999,-999.0,-999.0,56,0.00,,,0.00,tws,2013-06-01 20:06:00,
2013-06-01 16:11:00,78.1,62.1,29.86,North,-999,-999.0,-999.0,57,0.00,,,0.00,tws,2013-06-01 20:11:00,
2013-06-01 16:16:00,78.4,62.7,29.86,North,-999,-999.0,-999.0,58,0.00,,,0.00,tws,2013-06-01 20:16:00,
2013-06-01 16:21:00,78.4,62.3,29.86,North,-999,-999.0,-999.0,57,0.00,,,0.00,tws,2013-06-01 20:21:00,
2013-06-01 16:26:00,77.8,62.0,29.86,North,-999,-999.0,-999.0,57,0.00,,,0.00,tws,2013-06-01 20:26:00,
2013-06-01 16:31:00,77.2,61.6,29.86,North,-999,-999.0,-999.0,58,0.00,,,0.00,tws,2013-06-01 20:31:00,
2013-06-01 16:41:00,76.5,61.0,29.86,North,-999,-999.0,-999.0,58,0.00,,,0.00,tws,2013-06-01 20:41:00,
2013-06-01 16:46:00,76.4,61.1,29.85,North,-999,-999.0,-999.0,58,0.00,,,0.00,tws,2013-06-01 20:46:00,
2013-06-01 16:51:00,76.5,61.4,29.86,North,-999,-999.0,-999.0,58,0.00,,,0.00,tws,2013-06-01 20:51:00,
2013-06-01 16:56:00,76.8,61.0,29.85,North,-999,-999.0,-999.0,57,0.00,,,0.00,tws,2013-06-01 20:56:00,
2013-06-01 17:01:00,76.8,60.9,29.85,North,-999,-999.0,-999.0,57,0.00,,,0.00,tws,2013-06-01 21:01:00,
2013-06-01 17:06:00,77.1,61.2,29.85,North,-999,-999.0,-999.0,57,0.00,,,0.00,tws,2013-06-01 21:06:00,
2013-06-01 17:11:00,77.5,61.4,29.84,North,-999,-999.0,-999.0,57,0.00,,,0.00,tws,2013-06-01 21:11:00,
2013-06-01 17:16:00,77.7,60.7,29.84,North,-999,-999.0,-999.0,55,0.00,,,0.00,tws,2013-06-01 21:16:00,
2013-06-01 17:21:00,77.8,60.9,29.84,North,-999,-999.0,-999.0,55,0.00,,,0.00,tws,2013-06-01 21:21:00,
2013-06-01 17:26:00,77.9,60.8,29.84,North,-999,-999.0,-999.0,55,0.00,,,0.00,tws,2013-06-01 21:26:00,
2013-06-01 17:31:00,77.9,60.3,29.84,North,-999,-999.0,-999.0,54,0.00,,,0.00,tws,2013-06-01 21:31:00,
2013-06-01 17:36:00,77.8,60.5,29.84,North,-999,-999.0,-999.0,54,0.00,,,0.00,tws,2013-06-01 21:36:00,
2013-06-01 17:41:00,77.9,61.0,29.84,North,-999,-999.0,-999.0,55,0.00,,,0.00,tws,2013-06-01 21:41:00,
2013-06-01 17:46:00,78.1,61.1,29.84,North,-999,-999.0,-999.0,55,0.00,,,0.00,tws,2013-06-01 21:46:00,
2013-06-01 17:51:00,78.4,60.8,29.83,North,-999,-999.0,-999.0,54,0.00,,,0.00,tws,2013-06-01 21:51:00,
2013-06-01 17:56:00,79.1,60.9,29.83,North,-999,-999.0,-999.0,53,0.00,,,0.00,tws,2013-06-01 21:56:00,
2013-06-01 18:01:00,79.2,61.3,29.83,North,-999,-999.0,-999.0,53,0.00,,,0.00,tws,2013-06-01 22:01:00,
2013-06-01 18:06:00,79.0,61.5,29.83,North,-999,-999.0,-999.0,54,0.00,,,0.00,tws,2013-06-01 22:06:00,
2013-06-01 18:11:00,78.7,61.3,29.83,North,-999,-999.0,-999.0,54,0.00,,,0.00,tws,2013-06-01 22:11:00,
2013-06-01 18:16:00,78.5,61.2,29.83,North,-999,-999.0,-999.0,54,0.00,,,0.00,tws,2013-06-01 22:16:00,
2013-06-01 18:21:00,78.0,60.9,29.83,North,-999,-999.0,-999.0,55,0.00,,,0.00,tws,2013-06-01 22:21:00,
2013-06-01 18:26:00,77.6,60.7,29.83,North,-999,-999.0,-999.0,55,0.00,,,0.00,tws,2013-06-01 22:26:00,
2013-06-01 18:31:00,77.2,60.4,29.83,North,-999,-999.0,-999.0,55,0.00,,,0.00,tws,2013-06-01 22:31:00,
2013-06-01 18:36:00,76.8,60.1,29.83,North,-999,-999.0,-999.0,55,0.00,,,0.00,tws,2013-06-01 22:36:00,
2013-06-01 18:41:00,76.5,59.9,29.82,North,-999,-999.0,-999.0,55,0.00,,,0.00,tws,2013-06-01 22:41:00,
2013-06-01 18:46:00,76.4,60.5,29.83,North,-999,-999.0,-999.0,57,0.00,,,0.00,tws,2013-06-01 22:46:00,
2013-06-01 18:51:00,76.3,60.8,29.83,North,-999,-999.0,-999.0,58,0.00,,,0.00,tws,2013-06-01 22:51:00,
2013-06-01 18:56:00,76.1,60.2,29.83,North,-999,-999.0,-999.0,57,0.00,,,0.00,tws,2013-06-01 22:56:00,
2013-06-01 19:01:00,76.0,60.4,29.83,North,-999,-999.0,-999.0,58,0.00,,,0.00,tws,2013-06-01 23:01:00,
2013-06-01 19:06:00,75.9,60.4,29.83,North,-999,-999.0,-999.0,58,0.00,,,0.00,tws,2013-06-01 23:06:00,
2013-06-01 19:11:00,75.8,60.9,29.83,North,-999,-999.0,-999.0,59,0.00,,,0.00,tws,2013-06-01 23:11:00,
2013-06-01 19:16:00,75.7,61.0,29.82,North,-999,-999.0,-999.0,59,0.00,,,0.00,tws,2013-06-01 23:16:00,
2013-06-01 19:21:00,75.7,61.1,29.82,North,-999,-999.0,-999.0,60,0.00,,,0.00,tws,2013-06-01 23:21:00,
2013-06-01 19:26:00,75.6,61.2,29.83,North,-999,-999.0,-999.0,60,0.00,,,0.00,tws,2013-06-01 23:26:00,
2013-06-01 19:31:00,75.5,61.5,29.83,North,-999,-999.0,-999.0,61,0.00,,,0.00,tws,2013-06-01 23:31:00,
2013-06-01 19:36:00,75.4,61.5,29.83,North,-999,-999.0,-999.0,61,0.00,,,0.00,tws,2013-06-01 23:36:00,
2013-06-01 19:41:00,75.1,61.3,29.83,North,-999,-999.0,-999.0,61,0.00,,,0.00,tws,2013-06-01 23:41:00,
2013-06-01 19:46:00,74.8,61.1,29.83,North,-999,-999.0,-999.0,61,0.00,,,0.00,tws,2013-06-01 23:46:00,
2013-06-01 19:51:00,74.5,61.0,29.83,North,-999,-999.0,-999.0,62,0.00,,,0.00,tws,2013-06-01 23:51:00,
2013-06-01 19:56:00,74.3,61.0,29.83,North,-999,-999.0,-999.0,62,0.00,,,0.00,tws,2013-06-01 23:56:00,
2013-06-01 20:01:00,74.1,61.1,29.83,North,-999,-999.0,-999.0,63,0.00,,,0.00,tws,2013-06-02 00:01:00,
2013-06-01 20:06:00,73.8,61.0,29.83,North,-999,-999.0,-999.0,63,0.00,,,0.00,tws,2013-06-02 00:06:00,
2013-06-01 20:11:00,73.5,61.1,29.83,North,-999,-999.0,-999.0,64,0.00,,,0.00,tws,2013-06-02 00:11:00,
2013-06-01 20:16:00,73.3,61.1,29.83,North,-999,-999.0,-999.0,65,0.00,,,0.00,tws,2013-06-02 00:16:00,
2013-06-01 20:21:00,73.1,60.9,29.83,North,-999,-999.0,-999.0,65,0.00,,,0.00,tws,2013-06-02 00:21:00,
2013-06-01 20:26:00,73.0,61.1,29.83,North,-999,-999.0,-999.0,66,0.00,,,0.00,tws,2013-06-02 00:26:00,
2013-06-01 20:31:00,72.7,61.2,29.83,North,-999,-999.0,-999.0,66,0.00,,,0.00,tws,2013-06-02 00:31:00,
2013-06-01 20:36:00,72.5,61.0,29.83,North,-999,-999.0,-999.0,66,0.00,,,0.00,tws,2013-06-02 00:36:00,
2013-06-01 20:41:00,72.3,61.3,29.83,North,-999,-999.0,-999.0,67,0.00,,,0.00,tws,2013-06-02 00:41:00,
2013-06-01 20:46:00,72.1,61.2,29.83,North,-999,-999.0,-999.0,68,0.00,,,0.00,tws,2013-06-02 00:46:00,
2013-06-01 20:51:00,71.9,61.0,29.83,North,-999,-999.0,-999.0,68,0.00,,,0.00,tws,2013-06-02 00:51:00,
2013-06-01 20:56:00,71.7,61.1,29.83,North,-999,-999.0,-999.0,68,0.00,,,0.00,tws,2013-06-02 00:56:00,
2013-06-01 21:01:00,71.6,61.1,29.83,North,-999,-999.0,-999.0,69,0.00,,,0.00,tws,2013-06-02 01:01:00,
2013-06-01 21:11:00,71.1,61.0,29.83,North,-999,-999.0,-999.0,70,0.00,,,0.00,tws,2013-06-02 01:11:00,
2013-06-01 21:16:00,70.7,60.9,29.84,North,-999,-999.0,-999.0,70,0.00,,,0.00,tws,2013-06-02 01:16:00,
2013-06-01 21:21:00,70.5,61.0,29.84,North,-999,-999.0,-999.0,71,0.00,,,0.00,tws,2013-06-02 01:21:00,
2013-06-01 21:26:00,70.2,61.2,29.84,North,-999,-999.0,-999.0,72,0.00,,,0.00,tws,2013-06-02 01:26:00,
2013-06-01 21:31:00,69.8,61.2,29.84,North,-999,-999.0,-999.0,73,0.00,,,0.00,tws,2013-06-02 01:31:00,
2013-06-01 21:36:00,69.5,61.1,29.84,North,-999,-999.0,-999.0,74,0.00,,,0.00,tws,2013-06-02 01:36:00,
2013-06-01 21:41:00,69.3,61.1,29.84,North,-999,-999.0,-999.0,74,0.00,,,0.00,tws,2013-06-02 01:41:00,
2013-06-01 21:46:00,69.1,61.0,29.85,North,-999,-999.0,-999.0,75,0.00,,,0.00,tws,2013-06-02 01:46:00,
2013-06-01 21:51:00,68.8,61.2,29.85,North,-999,-999.0,-999.0,76,0.00,,,0.00,tws,2013-06-02 01:51:00,
2013-06-01 21:56:00,68.6,61.1,29.85,North,-999,-999.0,-999.0,76,0.00,,,0.00,tws,2013-06-02 01:56:00,
2013-06-01 22:01:00,68.4,61.1,29.86,North,-999,-999.0,-999.0,77,0.00,,,0.00,tws,2013-06-02 02:01:00,
2013-06-01 22:06:00,68.3,61.4,29.86,North,-999,-999.0,-999.0,78,0.00,,,0.00,tws,2013-06-02 02:06:00,
2013-06-01 22:11:00,68.2,61.6,29.86,North,-999,-999.0,-999.0,79,0.00,,,0.00,tws,2013-06-02 02:11:00,
2013-06-01 22:16:00,68.0,61.4,29.86,North,-999,-999.0,-999.0,79,0.00,,,0.00,tws,2013-06-02 02:16:00,
2013-06-01 22:21:00,67.9,61.3,29.85,North,-999,-999.0,-999.0,79,0.00,,,0.00,tws,2013-06-02 02:21:00,
2013-06-01 22:26:00,67.7,61.3,29.85,North,-999,-999.0,-999.0,79,0.00,,,0.00,tws,2013-06-02 02:26:00,
2013-06-01 22:31:00,67.5,61.3,29.85,North,-999,-999.0,-999.0,80,0.00,,,0.00,tws,2013-06-02 02:31:00,
2013-06-01 22:36:00,67.4,61.3,29.85,North,-999,-999.0,-999.0,80,0.00,,,0.00,tws,2013-06-02 02:36:00,
2013-06-01 22:41:00,67.2,61.3,29.86,North,-999,-999.0,-999.0,81,0.00,,,0.00,tws,2013-06-02 02:41:00,
2013-06-01 22:46:00,67.1,61.3,29.86,North,-999,-999.0,-999.0,81,0.00,,,0.00,tws,2013-06-02 02:46:00,
2013-06-01 22:51:00,67.0,61.4,29.86,North,-999,-999.0,-999.0,82,0.00,,,0.00,tws,2013-06-02 02:51:00,
2013-06-01 22:56:00,66.9,61.4,29.86,North,-999,-999.0,-999.0,82,0.00,,,0.00,tws,2013-06-02 02:56:00,
2013-06-01 23:01:00,66.8,61.6,29.86,North,-999,-999.0,-999.0,83,0.00,,,0.00,tws,2013-06-02 03:01:00,
2013-06-01 23:06:00,66.7,61.5,29.86,North,-999,-999.0,-999.0,83,0.00,,,0.00,tws,2013-06-02 03:06:00,
2013-06-01 23:11:00,66.7,61.6,29.86,North,-999,-999.0,-999.0,83,0.00,,,0.00,tws,2013-06-02 03:11:00,
2013-06-01 23:16:00,66.7,61.7,29.86,North,-999,-999.0,-999.0,83,0.00,,,0.00,tws,2013-06-02 03:16:00,
2013-06-01 23:21:00,66.6,61.7,29.86,North,-999,-999.0,-999.0,84,0.00,,,0.00,tws,2013-06-02 03:21:00,
2013-06-01 23:26:00,66.5,61.9,29.86,North,-999,-999.0,-999.0,84,0.00,,,0.00,tws,2013-06-02 03:26:00,
2013-06-01 23:31:00,66.5,61.8,29.86,North,-999,-999.0,-999.0,84,0.00,,,0.00,tws,2013-06-02 03:31:00,
2013-06-01 23:36:00,66.6,61.9,29.86,North,-999,-999.0,-999.0,84,0.00,,,0.00,tws,2013-06-02 03:36:00,
2013-06-01 23:41:00,66.6,61.9,29.86,North,-999,-999.0,-999.0,84,0.00,,,0.00,tws,2013-06-02 03:41:00,
2013-06-01 23:46:00,66.7,62.0,29.86,North,-999,-999.0,-999.0,84,0.00,,,0.00,tws,2013-06-02 03:46:00,
2013-06-01 23:51:00,66.8,62.2,29.86,North,-999,-999.0,-999.0,85,0.00,,,0.00,tws,2013-06-02 03:51:00,
2013-06-01 23:56:00,66.9,62.2,29.86,North,-999,-999.0,-999.0,84,0.00,,,0.00,tws,2013-06-02 03:56:00,